User: anonymous   Login
Location: Unspecified
(0.0000°N, 0.0000°E)
Time: 03:59:59
(UTC+00:00)
Language:

LEMUR 2 JIN-LUEN - Orbit

View from above orbital plane
View from above orbital plane
View from above satellite
View from above satellite

Ground track
Ground track

The orbit data is extracted from the following two-line orbital elements,

1 43182U 18014C   25341.04210058  .00095655  00000-0  14490-2 0  9997
2 43182  97.5504 259.8554 0002413 228.5634 131.5412 15.54315798430987
Epoch (UTC): 07 December 2025 01:00:37
Eccentricity: 0.0002413
inclination: 97.5504°
perigee height: 402 km
apogee height: 406 km
right ascension of ascending node: 259.8554°
argument of perigee: 228.5634°
revolutions per day: 15.54315798
mean anomaly at epoch: 131.5412°
orbit number at epoch: 43098

The dashed part of the orbit path shows where the satellite is in the earth's shadow,  

DLR